Wheeling, WV

2:57 AM EDT on May 28, 2017 (GMT -0400)
Wheeling-Ohio County

Weather History for KHLG - May, 2014

Change the Weather History Date:

Thursday, May 1, 2014

  Actual Average Record
Temperature  
Mean Temperature 55 °F 56 °F  
Max Temperature 60 °F 66 °F 85 °F (2007)
Min Temperature 50 °F 46 °F 40 °F (2005)
Degree Days  
Heating Degree Days 10 9  
Month to date heating degree days 10 9  
Since 1 July heating degree days 5785 5367  
Cooling Degree Days 0    
Month to date cooling degree days 0  
Year to date cooling degree days 11  
Growing Degree Days 4 (Base 50)    
Moisture  
Dew Point 46 °F    
Average Humidity 68    
Maximum Humidity 93    
Minimum Humidity 43    
Precipitation  
Precipitation T in 0.11 in 0.54 in (2017)
Month to date precipitation T 0.11  
Sea Level Pressure  
Sea Level Pressure 29.84 in    
Wind  
Wind Speed 11 mph (WSW)    
Max Wind Speed 24 mph    
Max Gust Speed 31 mph    
Visibility 10 miles    
Events Rain    
T = Trace of Precipitation, MM = Missing Value Source: NWS Daily Summary

Daily Weather History Graph

Daily Weather History Graph

Search for Another Location

Airport or City:

Trip Planner

Search our weather history database for the weather conditions in past years. The results will help you decide how hot, cold, wet, or windy it might be!

Date:

Astronomy

May. 01, 2014 Rise Set
Actual Time 6:22 AM EDT 8:17 PM EDT
Civil Twilight 5:52 AM EDT 8:47 PM EDT
Nautical Twilight 5:17 AM EDT 9:23 PM EDT
Astronomical Twilight 4:38 AM EDT 10:01 PM EDT
Moon 8:08 AM EDT (5/1) 10:49 PM EDT (5/1)
Length of Visible Light 14h 54m
Length of Day
13h 55m
Waxing Crescent, 6% of the Moon is Illuminated
May 1
Waxing Crescent
May 6
First Quarter
May 14
Full
May 21
Last Quarter
May 28
New

Hourly Weather History & Observations

Time (EDT) Temp. Dew Point Humidity Pressure Visibility Wind Dir Wind Speed Gust Speed Precip Events Conditions
12:00 AM 57.0 °F 55.0 °F 93% 29.83 in 10.0 mi SSW 13.8 mph 20.7 mph 0.00 in Rain Light Rain
12:07 AM 57.0 °F 55.9 °F 96% 29.84 in 10.0 mi SSW 11.5 mph 20.7 mph 0.00 in   Overcast
12:53 AM 57.0 °F 55.0 °F 93% 29.84 in 10.0 mi SSW 11.5 mph - 0.01 in   Overcast
1:07 AM 57.0 °F 54.0 °F 89% 29.82 in 10.0 mi SSW 11.5 mph - N/A   Overcast
1:53 AM 55.9 °F 53.1 °F 90% 29.84 in 10.0 mi SSW 12.7 mph 20.7 mph N/A   Overcast
2:53 AM 55.0 °F 52.0 °F 89% 29.83 in 10.0 mi SSW 10.4 mph 19.6 mph N/A   Overcast
3:01 AM 55.0 °F 52.0 °F 89% 29.82 in 10.0 mi SSW 12.7 mph 20.7 mph N/A   Overcast
3:53 AM 55.0 °F 52.0 °F 89% 29.82 in 10.0 mi SW 9.2 mph - N/A   Overcast
4:10 AM 55.0 °F 52.0 °F 89% 29.82 in 10.0 mi SW 9.2 mph - N/A   Overcast
4:53 AM 54.0 °F 52.0 °F 93% 29.81 in 10.0 mi South 6.9 mph - N/A   Overcast
5:04 AM 54.0 °F 52.0 °F 93% 29.82 in 10.0 mi SW 8.1 mph - 0.00 in   Overcast
5:32 AM 54.0 °F 52.0 °F 93% 29.81 in 10.0 mi SW 6.9 mph - 0.00 in   Overcast
5:53 AM 54.0 °F 51.1 °F 90% 29.82 in 10.0 mi SW 6.9 mph - 0.00 in   Overcast
6:06 AM 53.1 °F 51.1 °F 93% 29.80 in 9.0 mi Calm Calm - N/A   Overcast
6:26 AM 53.1 °F 51.1 °F 93% 29.83 in 8.0 mi SW 8.1 mph - N/A   Overcast
6:33 AM 53.1 °F 51.1 °F 93% 29.83 in 9.0 mi SW 10.4 mph - N/A   Overcast
6:35 AM 53.1 °F 51.1 °F 93% 29.84 in 10.0 mi SW 10.4 mph - N/A   Overcast
6:43 AM 53.1 °F 51.1 °F 93% 29.84 in 10.0 mi SW 9.2 mph - N/A   Overcast
6:53 AM 53.1 °F 50.0 °F 89% 29.85 in 10.0 mi WSW 8.1 mph - N/A   Overcast
7:37 AM 53.1 °F 48.9 °F 86% 29.85 in 10.0 mi WSW 10.4 mph - 0.00 in   Overcast
7:53 AM 52.0 °F 48.9 °F 89% 29.85 in 10.0 mi WSW 6.9 mph - 0.00 in   Overcast
8:28 AM 52.0 °F 48.9 °F 89% 29.86 in 10.0 mi WNW 5.8 mph - 0.00 in Rain Light Rain
8:53 AM 51.1 °F 48.9 °F 92% 29.87 in 8.0 mi WNW 6.9 mph - 0.00 in   Overcast
9:05 AM 51.1 °F 48.0 °F 89% 29.86 in 9.0 mi WNW 8.1 mph - N/A   Overcast
9:13 AM 51.1 °F 48.0 °F 89% 29.86 in 10.0 mi West 6.9 mph - N/A   Overcast
9:53 AM 50.0 °F 46.0 °F 86% 29.88 in 7.0 mi West 9.2 mph 20.7 mph 0.00 in Rain Light Rain
10:24 AM 50.0 °F 46.0 °F 86% 29.87 in 10.0 mi West 10.4 mph - 0.00 in   Overcast
10:53 AM 51.1 °F 46.0 °F 83% 29.88 in 10.0 mi WSW 10.4 mph - 0.00 in   Overcast
11:05 AM 52.0 °F 46.0 °F 80% 29.87 in 10.0 mi WSW 10.4 mph - N/A   Overcast
11:53 AM 54.0 °F 45.0 °F 72% 29.86 in 10.0 mi West 13.8 mph 19.6 mph N/A   Mostly Cloudy
12:02 PM 55.0 °F 44.1 °F 67% 29.85 in 10.0 mi WSW 16.1 mph 24.2 mph N/A   Mostly Cloudy
12:53 PM 55.9 °F 43.0 °F 62% 29.85 in 10.0 mi West 15.0 mph 26.5 mph N/A   Mostly Cloudy
1:53 PM 55.9 °F 39.0 °F 53% 29.84 in 10.0 mi SW 17.3 mph 29.9 mph N/A   Mostly Cloudy
2:53 PM 57.0 °F 37.0 °F 47% 29.84 in 10.0 mi West 20.7 mph 31.1 mph N/A   Mostly Cloudy
3:53 PM 55.9 °F 36.0 °F 47% 29.84 in 10.0 mi WSW 13.8 mph 24.2 mph N/A   Overcast
4:53 PM 57.9 °F 36.0 °F 44% 29.85 in 10.0 mi SW 11.5 mph 20.7 mph N/A   Overcast
5:53 PM 55.9 °F 33.1 °F 42% 29.85 in 10.0 mi West 17.3 mph 26.5 mph N/A   Overcast
6:53 PM 55.9 °F 34.0 °F 44% 29.85 in 10.0 mi West 16.1 mph 20.7 mph N/A   Overcast
7:53 PM 55.0 °F 34.0 °F 45% 29.86 in 10.0 mi West 16.1 mph - N/A   Overcast
8:53 PM 54.0 °F 34.0 °F 47% 29.87 in 10.0 mi WSW 10.4 mph - N/A   Overcast
9:53 PM 53.1 °F 35.1 °F 50% 29.87 in 10.0 mi WSW 6.9 mph - N/A   Overcast
10:53 PM 52.0 °F 36.0 °F 54% 29.86 in 10.0 mi SW 6.9 mph - N/A   Overcast
11:53 PM 52.0 °F 36.0 °F 54% 29.85 in 10.0 mi SW 6.9 mph - N/A   Overcast